Location: ??
(35.5052°N, 139.7262°E)
Time: 17:02:27
(UTC+00:00)

Aureole 3 Rocket - Pass Details

Date: 20 June 2021
Orbit: 399 x 1739 km, 82.5° (Epoch: 30 July)

Event Time Altitude Azimuth Distance (km) Brightness Sun altitude
Rises 16:35:18 0° 350° (N) 2,783 7.2 -25.3°
Reaches altitude 10° 16:37:12 10° 348° (NNW) 2,011 6.3 -25.1°
Maximum altitude 16:41:37 73° 264° (W) 817 3.4 -24.7°
Enters shadow 16:42:04 68° 224° (SW) 857 3.4 -24.6°
